DW2470 Weather Reports


time (UTC)temp
F
wind
direction
speed
knots
gust
knots
rain 1hr
in
rain 24hr
in
rain mn
in
humidity
%
barometer
mb
20260831104527 64 112 3.5 0.0 0.00 0.00 0.22 98 1006.8
20260831103027 64 96 2.6 0.0 0.00 0.00 0.19 98 1007.1
20260831101522 63 100 1.7 0.0 0.00 0.00 0.18 97 1006.9
20260831100026 63 77 1.7 0.0 0.00 0.00 0.15 97 1007.2
20260831094525 63 39 1.7 0.0 0.00 0.00 0.12 97 1007.5
20260831093019 63 89 1.7 0.0 0.00 0.00 0.07 97 1008.0
20260831091514 63 14 1.7 0.0 0.00 0.00 0.06 97 1007.9
20260831090013 62 112 0.9 0.0 0.00 0.00 0.05 97 1008.3
20260831084517 62 69 0.9 0.0 0.00 0.00 0.05 97 1008.3
20260831083026 62 112 1.7 0.0 0.00 0.00 0.04 97 1008.2
20260831081509 62 86 1.7 0.0 0.00 0.00 0.03 97 1008.0
20260831080022 62 90 1.7 0.0 0.00 0.00 0.02 97 1008.2
20260831074512 62 110 2.6 0.0 0.00 0.00 0.01 97 1008.2
20260831073013 62 45 1.7 0.0 0.00 0.00 0.01 97 1008.7
20260831071600 62 78 1.7 0.0 0.00 0.00 0.00 97 1008.8
20260831071500 62 66 1.7 0.0 0.00 0.00 0.00 97 1008.8
20260831070114 62 66 1.7 0.0 0.00 0.00 0.00 97 1009.1
20260831064558 62 97 1.7 0.0 0.00 0.00 0.00 97 1009.3
20260831063056 62 78 1.7 0.0 0.00 0.00 0.00 96 1009.4
20260831061556 62 95 2.6 0.0 0.00 0.00 0.00 96 1009.1
20260831060051 62 333 1.7 0.0 0.00 0.00 0.00 96 1009.3
20260831054548 62 90 1.7 0.0 0.00 0.00 0.00 96 1010.0
20260831053048 62 111 1.7 0.0 0.00 0.00 0.00 96 1010.5
20260831051551 62 73 1.7 0.0 0.00 0.00 0.00 96 1010.6
20260831050043 62 54 1.7 0.0 0.00 0.00 0.00 96 1010.5
20260831044551 61 48 0.9 0.0 0.00 0.00 0.00 95 1010.7
20260831043044 62 91 0.9 0.0 0.00 0.00 0.00 95 1011.3
20260831041550 61 96 1.7 0.0 0.00 0.00 0.00 95 1011.1
20260831040040 62 73 1.7 0.0 0.00 0.00 0.00 94 1011.4
20260831034539 62 70 1.7 0.0 0.00 0.00 0.00 94 1011.0
20260831033039 62 75 1.7 0.0 0.00 0.00 0.00 93 1011.1
20260831031539 62 72 2.6 0.0 0.00 0.00 0.00 93 1011.3
20260831030008 62 143 1.7 0.0 0.00 0.00 0.00 93 1011.1
20260831024510 62 9 1.7 0.0 0.00 0.00 0.00 92 1010.9
20260831023004 62 156 1.7 0.0 0.00 0.00 0.00 93 1011.0
20260831021504 62 139 1.7 0.0 0.00 0.00 0.00 93 1010.9
20260831020003 62 103 1.7 0.0 0.00 0.00 0.00 92 1010.8
20260831014503 62 47 0.9 0.0 0.00 0.00 0.00 92 1010.9
20260831013101 62 36 0.9 0.0 0.00 0.00 0.00 92 1011.0
20260831011614 62 68 1.7 0.0 0.00 0.00 0.00 91 1011.1
20260831010100 63 100 0.9 0.0 0.00 0.00 0.00 91 1011.1
20260831004559 63 69 0.9 0.0 0.00 0.00 0.00 91 1010.9
20260831003057 64 33 1.7 0.0 0.00 0.00 0.00 90 1010.8
20260831001604 64 75 0.9 0.0 0.00 0.00 0.00 89 1011.1
20260831000058 64 79 0.9 0.0 0.00 0.00 0.00 89 1011.2
20260830234556 65 85 1.7 0.0 0.00 0.00 0.00 89 1011.1
20260830233103 65 104 1.7 0.0 0.00 0.00 0.00 88 1011.4
20260830231600 65 113 1.7 0.0 0.00 0.00 0.00 88 1011.5
20260830230053 65 93 2.6 0.0 0.00 0.00 0.00 87 1011.6
20260830224609 66 180 1.7 0.0 0.00 0.00 0.00 86 1011.5
20260830223022 66 39 1.7 0.0 0.00 0.00 0.00 86 1011.8
20260830221522 66 50 1.7 0.0 0.00 0.00 0.00 86 1011.9
20260830220056 67 191 1.7 0.0 0.00 0.00 0.00 85 1012.0
20260830214557 67 96 1.7 0.0 0.00 0.00 0.00 84 1012.0
20260830213021 67 108 1.7 0.0 0.00 0.00 0.00 84 1011.9
20260830211521 67 107 2.6 0.0 0.00 0.00 0.00 84 1011.7
20260830210026 67 142 2.6 0.0 0.00 0.00 0.00 84 1011.9
20260830204521 67 119 3.5 0.0 0.00 0.00 0.00 83 1011.9
20260830203016 68 115 2.6 0.0 0.00 0.00 0.00 82 1011.8
20260830201516 68 160 3.5 0.0 0.00 0.00 0.00 82 1012.1
20260830200013 68 150 2.6 0.0 0.00 0.00 0.00 82 1011.9
20260830194519 68 139 2.6 0.0 0.00 0.00 0.00 83 1011.9
20260830193015 67 121 2.6 0.0 0.00 0.00 0.00 85 1012.3
20260830191518 67 81 2.6 0.0 0.00 0.00 0.00 84 1012.0
20260830190009 67 157 2.6 0.0 0.00 0.00 0.00 83 1012.1
20260830184509 68 283 2.6 0.0 0.00 0.00 0.00 82 1012.1
20260830183008 68 127 2.6 0.0 0.00 0.00 0.00 83 1012.2
20260830181507 68 109 2.6 0.0 0.00 0.00 0.00 81 1012.0
20260830180004 69 142 2.6 0.0 0.00 0.00 0.00 82 1012.1
20260830174501 68 118 2.6 0.0 0.00 0.00 0.00 84 1012.2
20260830173059 67 29 1.7 0.0 0.00 0.00 0.00 85 1012.4
20260830171608 67 30 2.6 0.0 0.00 0.00 0.00 86 1012.2
20260830170052 66 27 1.7 0.0 0.00 0.00 0.00 87 1012.2
20260830164601 66 36 1.7 0.0 0.00 0.00 0.00 89 1012.3
20260830163048 65 158 1.7 0.0 0.00 0.00 0.00 89 1012.2
20260830161546 65 42 1.7 0.0 0.00 0.00 0.00 92 1012.1
20260830160043 64 98 1.7 0.0 0.00 0.00 0.00 93 1012.2
20260830154540 64 70 1.7 0.0 0.00 0.00 0.00 93 1012.0
20260830153039 64 81 1.7 0.0 0.00 0.00 0.00 94 1011.9
20260830151541 64 106 2.6 0.0 0.00 0.00 0.00 94 1012.4
20260830150037 64 100 2.6 0.0 0.00 0.00 0.00 95 1012.3
20260830144532 64 63 1.7 0.0 0.00 0.00 0.00 96 1012.3
20260830143034 64 9 1.7 0.0 0.00 0.00 0.00 96 1012.1
20260830141537 64 62 0.9 0.0 0.00 0.00 0.00 97 1011.8
20260830140025 63 59 0.9 0.0 0.00 0.00 0.00 97 1011.6
20260830134533 63 85 0.9 0.0 0.00 0.00 0.00 97 1011.8
20260830133019 62 83 0.9 0.0 0.00 0.00 0.00 97 1011.3
20260830131519 61 179 1.7 0.0 0.00 0.00 0.00 97 1011.6
20260830130019 61 238 0.9 0.0 0.00 0.00 0.00 97 1011.5
20260830124515 60 198 0.9 0.0 0.00 0.00 0.00 97 1011.7
20260830123015 59 196 0.0 0.0 0.00 0.00 0.00 97 1011.7
20260830121514 59 196 0.0 0.0 0.00 0.00 0.00 97 1011.8
20260830120014 59 195 0.0 0.0 0.00 0.00 0.00 97 1011.4
20260830114554 59 194 0.9 0.0 0.00 0.00 0.00 97 1011.4
20260830113043 58 195 0.0 0.0 0.00 0.00 0.00 97 1011.3
20260830111539 58 195 0.0 0.0 0.00 0.00 0.00 96 1011.3
20260830110037 59 194 0.0 0.0 0.00 0.00 0.00 96 1011.2